Terminal Aerodrome Forecast
Issued by NWS Lake Charles, LA

Home | Current Version | Previous Version | Text Only | Print | Product List | Glossary On
Versions: 1 2 3 4 5 6 7 8 9 10 11 12 13 14 15 16 17 18 19 20
000
FTUS44 KLCH 281700
TAFBPT
TAF
KBPT 281733Z 2818/0118 09010KT P6SM OVC050
     FM010500 08011KT P6SM SCT015 OVC025
     FM010800 10010KT P6SM VCSH SCT007 OVC015
      TEMPO 0109/0113 3SM BR OVC007
     FM011400 12008KT 4SM BR VCSH OVC007=

USA.gov is the U.S. government's official web portal to all federal, state and local government web resources and services.